Location: Blackie
(50.6050°N, 113.6230°W)
Time: 08:07:36
(UTC+00:00)

N. Korean satellite - Pass Details

Date: 03 December 2021
Orbit: 446 x 491 km, 97.3° (Epoch: 18 January)

Event Time Altitude Azimuth Distance (km) Brightness Sun altitude
Rises 00:08:38 0° 177° (S) 2,538 10.6 -5.8°
Reaches altitude 10° 00:10:44 10° 182° (S) 1,655 9.7 -6.1°
Maximum altitude 00:14:13 52° 260° (W) 597 7.5 -6.5°
Drops below altitude 10° 00:17:40 10° 338° (NNW) 1,641 9.2 -7.0°
Sets 00:19:45 0° 343° (NNW) 2,514 10.1 -7.3°
